This is the latest recevied weather packets stored in our database for station/object N4QD-13. If no packets are shown the sender has not sent any weather packets the latest 10 day(s).
| Time | Temp. | Humidity | Pressure | Rain* | Wind** | Luminosity | Snow |
|---|---|---|---|---|---|---|---|
| 1777865336 | 7.22° C | 76% | 1016.9 hPa | 0 mm | - | 0 W/m² | - |
| 1777865034 | 7.22° C | 78% | 1017.3 hPa | 0 mm | - | 0 W/m² | - |
| 1777864730 | 7.22° C | 77% | 1016.9 hPa | 0 mm | - | 0 W/m² | - |
| 1777864427 | 7.22° C | 76% | 1017.1 hPa | 0 mm | - | 0 W/m² | - |
| 1777864124 | 7.22° C | 75% | 1017.1 hPa | 0 mm | - | 0 W/m² | - |
| 1777863821 | 7.22° C | 76% | 1017.1 hPa | 0 mm | - | 0 W/m² | - |
| 1777863517 | 7.22° C | 75% | 1017 hPa | 0 mm | - | 0 W/m² | - |
| 1777863214 | 7.22° C | 75% | 1016.8 hPa | 0 mm | - | 0 W/m² | - |
| 1777862911 | 7.22° C | 75% | 1016.9 hPa | 0 mm | - | 0 W/m² | - |
| 1777862607 | 7.22° C | 73% | 1016.8 hPa | 0 mm | - | 0 W/m² | - |
| 1777862304 | 7.22° C | 72% | 1016.9 hPa | 0 mm | - | 0 W/m² | - |
| 1777862001 | 7.22° C | 72% | 1016.9 hPa | 0 mm | - | 0 W/m² | - |
| 1777861697 | 6.67° C | 74% | 1016.8 hPa | 0 mm | - | 0 W/m² | - |
| 1777861394 | 7.22° C | 79% | 1016.7 hPa | 0 mm | - | 0 W/m² | - |
| 1777861090 | 7.22° C | 72% | 1016.7 hPa | 0 mm | - | 0 W/m² | - |
| 1777860788 | 7.22° C | 71% | 1016.4 hPa | 0 mm | - | 0 W/m² | - |
| 1777860484 | 7.22° C | 72% | 1016.5 hPa | 0 mm | - | 0 W/m² | - |
| 1777860181 | 7.22° C | 70% | 1016.5 hPa | 0 mm | - | 0 W/m² | - |
| 1777859877 | 7.22° C | 70% | 1016.5 hPa | 0 mm | - | 0 W/m² | - |
| 1777859574 | 7.22° C | 71% | 1016.6 hPa | 0 mm | - | 0 W/m² | - |
| 1777859270 | 7.22° C | 71% | 1016.4 hPa | 0 mm | - | 0 W/m² | - |
| 1777858966 | 7.78° C | 69% | 1016.5 hPa | 0 mm | - | 0 W/m² | - |
| 1777858664 | 7.78° C | 68% | 1016.4 hPa | 0 mm | - | 0 W/m² | - |
| 1777858361 | 7.78° C | 68% | 1016.3 hPa | 0 mm | - | 0 W/m² | - |
| 1777858057 | 7.78° C | 68% | 1016.3 hPa | 0 mm | - | 0 W/m² | - |
* Rain latest hour (hover to see other rain measurements)
** Current wind speed in m/s (hover to see current wind gust speed)